Location: Lake Arresoe
(56.0000°N, 12.5000°E)
Time: 11:25:01
(UTC+02:00)

Cosmos 1674 - Pass Details

Date: 19 August 2020
Orbit: 495 x 517 km, 82.5° (Epoch: 23 September)

Event Time Altitude Azimuth Distance (km) Brightness Sun altitude
Rises 23:38:54 0° 357° (N) 2,607 7.5 -18.8°
Reaches altitude 10° 23:41:37 10° 18° (NNE) 1,721 6.0 -19.0°
Maximum altitude 23:44:09 17° 61° (ENE) 1,339 4.8 -19.1°
Enters shadow 23:45:16 15° 82° (E) 1,419 4.8 -19.2°
